sat.trackr.live / text

‹ back to catalog

ONEWEB-0313

NORAD 49099 · 2021-075AA

PAYLOAD ACTIVE UNKNOWN

§ Identity

Operator
Country
UK
Launch date
2021-08-21
Launch site
TYMSC
Launch vehicle
Mass (kg)
RCS (m²)

Purposes: comms

External: N2YO · Heavens-Above · Gunter

§ Orbital elements

Epoch: 2026-09-11T23:41:06.857952Z

Period
109.29 min
Inclination
87.9201°
Eccentricity
0.0001853
Mean motion
13.17649237 rev/d
Perigee alt
1,192.3 km
Apogee alt
1,195.1 km
Semi-major
7,571.8 km
B*
-2.3944e-4
RAAN
348.6378°
Arg perigee
104.9866°
Mean anomaly
255.1471°
Rev number
24,502

§ Raw data

ONEWEB-03131 49099U 21075AA  26254.98688493 -.00000080  00000+0 -23944-3 0  99942 49099  87.9201 348.6378 0001853 104.9866 255.1471 13.17649237245021

JSON: /api/v1/satellites/49099 · /tle

For live sub-satellite position, see the globe view (requires WebGL).

§ Visibility from observer

Set your observer location to see the next 7 days of passes ≥ 10°. The values pass through the URL so the page stays shareable.

No JS? Fill the form by hand. The geolocation button needs JavaScript.